Location: Unspecified
(0.0000°N, 0.0000°E)
Time: 06:37:00
(UTC+00:00)

Hubble Space Telescope - Pass Details

Date: 24 September 2021
Orbit: 535 x 539 km, 28.5° (Epoch: 17 September)

Event Time Altitude Azimuth Distance (km) Brightness Sun altitude
Rises 19:41:11 0° 308° (NW) 2,662 5.1 -27.3°
Reaches altitude 10° 19:43:28 10° 313° (NW) 1,775 3.9 -27.9°
Enters shadow 19:45:09 23° 321° (NW) 1,159 2.8 -28.3°
